Sibu, Malaysia

1:38 AM +08 on April 25, 2018 (GMT +0800)
Sibu

Weather History for WBGS - July, 2013

Change the Weather History Date:

Wednesday, July 10, 2013

  Actual Average Record
Temperature  
Mean Temperature 78 °F -  
Max Temperature 82 °F 91 °F - ()
Min Temperature 73 °F 72 °F - ()
Cooling Degree Days 12    
Growing Degree Days 28 (Base 50)    
Moisture  
Dew Point 73 °F    
Average Humidity 85    
Maximum Humidity 94    
Minimum Humidity 69    
Precipitation  
Precipitation 0.00 in 0.26 in - ()
Sea Level Pressure  
Sea Level Pressure 29.80 in    
Wind  
Wind Speed 4 mph ()    
Max Wind Speed 12 mph    
Max Gust Speed -    
Visibility 7.8 miles    
Events Rain    
T = Trace of Precipitation, MM = Missing Value Source: Averaged Metar Reports

Daily Weather History Graph

Daily Weather History Graph

Search for Another Location

Airport or City:

Astronomy

Jul. 10, 2013 Rise Set
Actual Time 6:30 AM +08 6:45 PM +08
Civil Twilight 6:08 AM +08 7:07 PM +08
Nautical Twilight 5:42 AM +08 7:33 PM +08
Astronomical Twilight 5:15 AM +08 8:00 PM +08
Moon 7:48 AM +08 (7/10) 8:14 PM +08 (7/10)
Length of Visible Light 12h 59m
Length of Day
12h 14m
Waxing Crescent, 3% of the Moon is Illuminated
Jul 10
Waxing Crescent
Jul 16
First Quarter
Jul 23
Full
Jul 30
Last Quarter
Aug 7
New

Hourly Weather History & Observations

Time (+08) Temp. Heat Index Dew Point Humidity Pressure Visibility Wind Dir Wind Speed Gust Speed Precip Events Conditions
12:00 AM 77.0 °F - 73.4 °F 89% 29.80 in 6.2 mi Calm Calm - N/A   Mostly Cloudy
1:00 AM 77.0 °F - 73.4 °F 89% 29.77 in 6.2 mi ESE 2.3 mph - N/A   Mostly Cloudy
2:00 AM 77 °F - 73 °F 85% 29.78 in 11 mi SSE 2.3 mph - -   Partly Cloudy
2:00 AM 77.0 °F - 73.4 °F 89% 29.77 in 6.2 mi SSE 2.3 mph - N/A   Mostly Cloudy
3:00 AM 77.0 °F - 73.4 °F 89% 29.74 in 6.2 mi SSE 3.5 mph - N/A   Mostly Cloudy
4:00 AM 77.0 °F - 73.4 °F 89% 29.74 in 6.2 mi SE 5.8 mph - N/A   Mostly Cloudy
5:00 AM 76 °F - 73 °F 89% 29.76 in 11 mi SSE 3.5 mph - -   Scattered Clouds
5:00 AM 75.2 °F - 73.4 °F 94% 29.74 in 6.2 mi SSE 3.5 mph - N/A   Mostly Cloudy
6:00 AM 75.2 °F - 73.4 °F 94% 29.77 in 6.2 mi SE 5.8 mph - N/A   Mostly Cloudy
7:00 AM 77.0 °F - 73.4 °F 89% 29.80 in 6.2 mi ESE 5.8 mph - N/A   Mostly Cloudy
8:00 AM 78 °F - 74 °F 86% 29.83 in 11 mi South 3.5 mph - -   Partly Cloudy
8:00 AM 77.0 °F - 75.2 °F 94% 29.83 in 6.2 mi South 3.5 mph - N/A   Mostly Cloudy
9:00 AM 75.2 °F - 71.6 °F 89% 29.86 in 6.2 mi NNW 11.5 mph - N/A   Mostly Cloudy
10:00 AM 73.4 °F - 71.6 °F 94% 29.86 in 6.2 mi WNW 5.8 mph - N/A Rain Light Rain
11:00 AM 75 °F - 72 °F 89% 29.86 in 7 mi NNE 3.5 mph - - Rain Light Rain
11:00 AM 75.2 °F - 73.4 °F 94% 29.86 in 6.2 mi NNE 3.5 mph - N/A Rain Light Rain
12:00 PM 78.8 °F - 73.4 °F 83% 29.83 in 6.2 mi ESE 3.5 mph - N/A   Mostly Cloudy
1:00 PM 82.4 °F 88.2 °F 73.4 °F 74% 29.83 in 6.2 mi East 3.5 mph - N/A   Mostly Cloudy
2:00 PM 80 °F - 74 °F 77% 29.81 in 19 mi ESE 9.2 mph - -   Partly Cloudy
2:00 PM 80.6 °F 85.4 °F 73.4 °F 79% 29.80 in 6.2 mi ESE 9.2 mph - N/A   Mostly Cloudy
3:00 PM 80.6 °F 85.4 °F 73.4 °F 79% 29.77 in 6.2 mi SSE 4.6 mph - N/A   Mostly Cloudy
4:00 PM 82.4 °F 88.2 °F 73.4 °F 74% 29.77 in 6.2 mi SSE 4.6 mph - N/A   Mostly Cloudy
5:00 PM 82 °F - 73 °F 69% 29.77 in 19 mi SE 5.8 mph - -   Partly Cloudy
5:00 PM 86.0 °F 95.1 °F 75.2 °F 70% 29.71 in 6.2 mi WNW 8.1 mph - N/A   Mostly Cloudy
6:00 PM 82.4 °F 88.2 °F 73.4 °F 74% 29.77 in 6.2 mi ESE 8.1 mph - N/A   Mostly Cloudy
7:00 PM 78.8 °F - 73.4 °F 83% 29.77 in 6.2 mi SE 5.8 mph - N/A   Mostly Cloudy
8:00 PM 77 °F - 73 °F 85% 29.79 in 11 mi SE 4.6 mph - -   Partly Cloudy
8:00 PM 77.0 °F - 73.4 °F 89% 29.77 in 6.2 mi SE 4.6 mph - N/A   Mostly Cloudy
9:00 PM 77.0 °F - 73.4 °F 89% 29.80 in 6.2 mi SE 5.8 mph - N/A   Mostly Cloudy
10:00 PM 75.2 °F - 71.6 °F 89% 29.83 in 6.2 mi SE 5.8 mph - N/A   Mostly Cloudy
11:00 PM 74 °F - 72 °F 91% 29.87 in 11 mi SE 5.8 mph - -   Scattered Clouds
11:00 PM 75.2 °F - 71.6 °F 89% 29.86 in 6.2 mi SE 5.8 mph - N/A   Mostly Cloudy